Time,TemperatureF,DewpointF,PressureIn,WindDirection,WindDirectionDegrees,WindSpeedMPH,WindSpeedGustMPH,Humidity,HourlyPrecipIn,Conditions,Clouds,dailyrainin,SoftwareType,DateUTC
2013-02-10 00:08:00,23.0,20.3,30.00,South,180,1.7,-999.0,89,-99.99,,,0.00,Acu-Link.com,2013-02-10 06:08:00,
2013-02-10 00:24:00,23.0,20.0,29.99,SSE,157,1.7,-999.0,88,-99.99,,,0.00,Acu-Link.com,2013-02-10 06:24:00,
2013-02-10 00:39:00,22.5,19.5,29.98,SE,135,2.2,-999.0,88,-99.99,,,0.00,Acu-Link.com,2013-02-10 06:39:00,
2013-02-10 00:54:00,21.6,18.6,29.99,SSE,157,1.7,-999.0,88,-99.99,,,0.00,Acu-Link.com,2013-02-10 06:54:00,
2013-02-10 01:10:00,20.7,17.7,29.98,SE,135,1.7,-999.0,88,-99.99,,,0.00,Acu-Link.com,2013-02-10 07:10:00,
2013-02-10 01:25:00,20.5,17.8,29.98,ESE,112,2.2,-999.0,89,-99.99,,,0.00,Acu-Link.com,2013-02-10 07:25:00,
2013-02-10 01:41:00,19.8,17.1,29.97,SSE,157,0.0,-999.0,89,-99.99,,,0.00,Acu-Link.com,2013-02-10 07:41:00,
2013-02-10 01:56:00,18.9,16.2,29.99,SE,135,0.0,-999.0,89,-99.99,,,0.00,Acu-Link.com,2013-02-10 07:56:00,
2013-02-10 02:11:00,18.5,15.8,29.98,South,180,0.0,-999.0,89,-99.99,,,0.00,Acu-Link.com,2013-02-10 08:11:00,
2013-02-10 02:26:00,19.6,17.2,29.97,SSW,202,0.0,-999.0,90,-99.99,,,0.00,Acu-Link.com,2013-02-10 08:26:00,
2013-02-10 02:42:00,19.9,17.4,29.96,West,270,0.0,-999.0,90,-99.99,,,0.00,Acu-Link.com,2013-02-10 08:42:00,
2013-02-10 02:57:00,19.9,17.4,29.95,West,270,0.0,-999.0,90,-99.99,,,0.00,Acu-Link.com,2013-02-10 08:57:00,
2013-02-10 03:19:00,20.1,17.6,29.95,West,270,0.0,-999.0,90,-99.99,,,0.00,Acu-Link.com,2013-02-10 09:19:00,
2013-02-10 03:34:00,19.9,17.7,29.94,South,180,0.0,-999.0,91,-99.99,,,0.00,Acu-Link.com,2013-02-10 09:34:00,
2013-02-10 03:49:00,19.4,17.2,29.93,West,270,0.0,-999.0,91,-99.99,,,0.00,Acu-Link.com,2013-02-10 09:49:00,
2013-02-10 04:04:00,20.1,17.9,29.92,South,180,0.0,-999.0,91,-99.99,,,0.00,Acu-Link.com,2013-02-10 10:04:00,
2013-02-10 04:20:00,20.3,18.1,29.92,South,180,0.0,-999.0,91,-99.99,,,0.00,Acu-Link.com,2013-02-10 10:20:00,
2013-02-10 04:35:00,20.7,18.5,29.92,ESE,112,1.7,-999.0,91,-99.99,,,0.00,Acu-Link.com,2013-02-10 10:35:00,
2013-02-10 04:50:00,21.2,19.2,29.90,SSE,157,1.7,-999.0,92,-99.99,,,0.00,Acu-Link.com,2013-02-10 10:50:00,
2013-02-10 05:06:00,21.7,19.7,29.90,West,270,2.2,-999.0,92,-99.99,,,0.00,Acu-Link.com,2013-02-10 11:06:00,
2013-02-10 05:21:00,22.6,20.9,29.90,East,90,3.2,-999.0,93,-99.99,,,0.00,Acu-Link.com,2013-02-10 11:21:00,
2013-02-10 05:36:00,23.2,21.5,29.89,ESE,112,2.7,-999.0,93,-99.99,,,0.00,Acu-Link.com,2013-02-10 11:36:00,
2013-02-10 05:52:00,23.7,22.0,29.90,South,180,2.7,-999.0,93,-99.99,,,0.00,Acu-Link.com,2013-02-10 11:52:00,
2013-02-10 06:07:00,23.9,22.2,29.90,ESE,112,2.7,-999.0,93,-99.99,,,0.00,Acu-Link.com,2013-02-10 12:07:00,
2013-02-10 06:23:00,23.9,22.2,29.90,South,180,2.7,-999.0,93,-99.99,,,0.00,Acu-Link.com,2013-02-10 12:23:00,
2013-02-10 06:38:00,23.7,22.0,29.88,SSW,202,2.7,-999.0,93,-99.99,,,0.00,Acu-Link.com,2013-02-10 12:38:00,
2013-02-10 06:54:00,24.1,22.4,29.87,South,180,4.2,-999.0,93,-99.99,,,0.00,Acu-Link.com,2013-02-10 12:54:00,
2013-02-10 07:09:00,24.8,23.1,29.86,ESE,112,4.7,-999.0,93,-99.99,,,0.00,Acu-Link.com,2013-02-10 13:09:00,
2013-02-10 07:25:00,25.9,24.2,29.86,South,180,4.7,-999.0,93,-99.99,,,0.00,Acu-Link.com,2013-02-10 13:25:00,
2013-02-10 07:40:00,27.0,25.5,29.84,WSW,247,3.2,-999.0,94,-99.99,,,0.00,Acu-Link.com,2013-02-10 13:40:00,
2013-02-10 07:55:00,28.8,27.3,29.84,SW,225,6.3,-999.0,94,-99.99,,,0.00,Acu-Link.com,2013-02-10 13:55:00,
2013-02-10 08:10:00,29.8,28.3,29.83,ESE,112,3.7,-999.0,94,-99.99,,,0.00,Acu-Link.com,2013-02-10 14:10:00,
2013-02-10 08:26:00,31.3,29.8,29.80,WNW,292,5.3,-999.0,94,-99.99,,,0.00,Acu-Link.com,2013-02-10 14:26:00,
2013-02-10 08:41:00,32.7,31.2,29.77,WSW,247,4.2,-999.0,94,-99.99,,,0.00,Acu-Link.com,2013-02-10 14:41:00,
2013-02-10 08:56:00,32.9,31.1,29.76,West,270,5.3,-999.0,93,-99.99,,,0.00,Acu-Link.com,2013-02-10 14:56:00,
2013-02-10 09:11:00,34.0,31.7,29.77,South,180,5.3,-999.0,91,-99.99,,,0.00,Acu-Link.com,2013-02-10 15:11:00,
2013-02-10 09:27:00,33.8,31.2,29.78,ESE,112,4.7,-999.0,90,-99.99,,,0.00,Acu-Link.com,2013-02-10 15:27:00,
2013-02-10 09:42:00,33.6,30.7,29.78,SE,135,8.3,-999.0,89,-99.99,,,0.00,Acu-Link.com,2013-02-10 15:42:00,
2013-02-10 09:57:00,32.9,30.0,29.78,South,180,6.3,-999.0,89,-99.99,,,0.00,Acu-Link.com,2013-02-10 15:57:00,
2013-02-10 10:13:00,33.8,30.9,29.76,SE,135,4.2,-999.0,89,-99.99,,,0.00,Acu-Link.com,2013-02-10 16:13:00,
2013-02-10 10:28:00,34.2,30.7,29.77,SSE,157,4.7,-999.0,87,-99.99,,,0.00,Acu-Link.com,2013-02-10 16:28:00,
2013-02-10 10:44:00,34.9,31.1,29.77,ENE,67,5.8,-999.0,86,-99.99,,,0.00,Acu-Link.com,2013-02-10 16:44:00,
2013-02-10 10:59:00,37.6,33.8,29.76,WNW,292,3.7,-999.0,86,-99.99,,,0.00,Acu-Link.com,2013-02-10 16:59:00,
2013-02-10 11:14:00,36.9,33.1,29.75,WSW,247,3.7,-999.0,86,-99.99,,,0.00,Acu-Link.com,2013-02-10 17:14:00,
2013-02-10 11:30:00,36.5,33.0,29.72,NNW,337,4.7,-999.0,87,-99.99,,,0.00,Acu-Link.com,2013-02-10 17:30:00,
2013-02-10 11:45:00,36.1,32.6,29.70,West,270,4.2,-999.0,87,-99.99,,,0.00,Acu-Link.com,2013-02-10 17:45:00,
2013-02-10 12:00:00,36.9,33.4,29.67,NNW,337,4.2,-999.0,87,-99.99,,,0.00,Acu-Link.com,2013-02-10 18:00:00,
2013-02-10 12:16:00,36.5,33.0,29.65,NNW,337,6.8,-999.0,87,-99.99,,,0.00,Acu-Link.com,2013-02-10 18:16:00,
2013-02-10 12:32:00,36.3,33.1,29.63,West,270,8.3,-999.0,88,-99.99,,,0.00,Acu-Link.com,2013-02-10 18:32:00,
2013-02-10 12:47:00,36.1,32.9,29.60,West,270,4.7,-999.0,88,-99.99,,,0.01,Acu-Link.com,2013-02-10 18:47:00,
2013-02-10 13:02:00,36.3,33.4,29.60,SW,225,4.2,-999.0,89,-99.99,,,0.01,Acu-Link.com,2013-02-10 19:02:00,
2013-02-10 13:17:00,36.3,33.4,29.58,West,270,6.8,-999.0,89,-99.99,,,0.03,Acu-Link.com,2013-02-10 19:17:00,
2013-02-10 13:33:00,36.3,33.7,29.56,NNW,337,7.8,-999.0,90,-99.99,,,0.05,Acu-Link.com,2013-02-10 19:33:00,
2013-02-10 13:48:00,36.0,33.6,29.54,SSW,202,8.3,-999.0,91,-99.99,,,0.08,Acu-Link.com,2013-02-10 19:48:00,
2013-02-10 14:03:00,36.1,34.0,29.52,SSW,202,7.3,-999.0,92,-99.99,,,0.11,Acu-Link.com,2013-02-10 20:03:00,
2013-02-10 14:19:00,35.8,33.7,29.50,WNW,292,7.8,-999.0,92,-99.99,,,0.14,Acu-Link.com,2013-02-10 20:19:00,
2013-02-10 14:34:00,35.4,33.6,29.49,South,180,8.3,-999.0,93,-99.99,,,0.22,Acu-Link.com,2013-02-10 20:34:00,
2013-02-10 14:49:00,35.1,33.3,29.47,West,270,8.9,-999.0,93,-99.99,,,0.25,Acu-Link.com,2013-02-10 20:49:00,
2013-02-10 15:04:00,34.7,32.9,29.45,SW,225,6.3,-999.0,93,-99.99,,,0.27,Acu-Link.com,2013-02-10 21:04:00,
2013-02-10 15:20:00,34.3,32.5,29.43,SSW,202,9.4,-999.0,93,-99.99,,,0.28,Acu-Link.com,2013-02-10 21:20:00,
2013-02-10 15:35:00,34.5,32.7,29.42,SW,225,7.8,-999.0,93,-99.99,,,0.32,Acu-Link.com,2013-02-10 21:35:00,
2013-02-10 15:50:00,34.9,33.1,29.40,ESE,112,8.3,-999.0,93,-99.99,,,0.36,Acu-Link.com,2013-02-10 21:50:00,
2013-02-10 16:06:00,35.4,33.8,29.41,South,180,11.4,-999.0,94,-99.99,,,0.41,Acu-Link.com,2013-02-10 22:06:00,
2013-02-10 16:21:00,35.6,34.0,29.41,ESE,112,10.4,-999.0,94,-99.99,,,0.49,Acu-Link.com,2013-02-10 22:21:00,
2013-02-10 16:36:00,36.0,34.7,29.41,ENE,67,11.4,-999.0,95,-99.99,,,0.53,Acu-Link.com,2013-02-10 22:36:00,
2013-02-10 16:52:00,36.5,35.2,29.40,ESE,112,9.9,-999.0,95,-99.99,,,0.57,Acu-Link.com,2013-02-10 22:52:00,
2013-02-10 17:07:00,36.7,35.4,29.39,SSE,157,8.9,-999.0,95,-99.99,,,0.58,Acu-Link.com,2013-02-10 23:07:00,
2013-02-10 17:22:00,37.2,35.9,29.38,East,90,12.5,-999.0,95,-99.99,,,0.59,Acu-Link.com,2013-02-10 23:22:00,
2013-02-10 17:37:00,37.6,36.3,29.38,ENE,67,13.5,-999.0,95,-99.99,,,0.61,Acu-Link.com,2013-02-10 23:37:00,
2013-02-10 17:53:00,37.8,36.5,29.37,ESE,112,8.3,-999.0,95,-99.99,,,0.64,Acu-Link.com,2013-02-10 23:53:00,
2013-02-10 18:08:00,37.9,36.6,29.37,SSE,157,9.4,-999.0,95,-99.99,,,0.69,Acu-Link.com,2013-02-11 00:08:00,
2013-02-10 18:23:00,37.9,36.9,29.36,WSW,247,10.4,-999.0,96,-99.99,,,0.73,Acu-Link.com,2013-02-11 00:23:00,
2013-02-10 18:39:00,38.1,37.1,29.36,East,90,10.9,-999.0,96,-99.99,,,0.75,Acu-Link.com,2013-02-11 00:39:00,
2013-02-10 18:54:00,38.1,37.1,29.35,ESE,112,9.9,-999.0,96,-99.99,,,0.78,Acu-Link.com,2013-02-11 00:54:00,
2013-02-10 19:09:00,38.1,37.1,29.35,ESE,112,7.8,-999.0,96,-99.99,,,0.79,Acu-Link.com,2013-02-11 01:09:00,
2013-02-10 19:24:00,38.3,37.3,29.34,East,90,7.8,-999.0,96,-99.99,,,0.79,Acu-Link.com,2013-02-11 01:24:00,
2013-02-10 19:40:00,38.5,37.5,29.33,SE,135,9.4,-999.0,96,-99.99,,,0.79,Acu-Link.com,2013-02-11 01:40:00,
2013-02-10 19:55:00,38.3,37.3,29.32,SSE,157,5.3,-999.0,96,-99.99,,,0.79,Acu-Link.com,2013-02-11 01:55:00,
2013-02-10 20:10:00,38.1,37.1,29.32,SW,225,6.3,-999.0,96,-99.99,,,0.79,Acu-Link.com,2013-02-11 02:10:00,
2013-02-10 20:26:00,38.1,37.1,29.31,ESE,112,8.3,-999.0,96,-99.99,,,0.79,Acu-Link.com,2013-02-11 02:26:00,
2013-02-10 20:41:00,38.5,37.5,29.30,SE,135,6.8,-999.0,96,-99.99,,,0.79,Acu-Link.com,2013-02-11 02:41:00,
2013-02-10 20:56:00,39.0,38.2,29.30,South,180,8.3,-999.0,97,-99.99,,,0.79,Acu-Link.com,2013-02-11 02:56:00,
2013-02-10 21:11:00,39.2,38.4,29.28,South,180,6.8,-999.0,97,-99.99,,,0.80,Acu-Link.com,2013-02-11 03:11:00,
2013-02-10 21:27:00,39.2,38.4,29.28,SSW,202,5.3,-999.0,97,-99.99,,,0.81,Acu-Link.com,2013-02-11 03:27:00,
2013-02-10 21:42:00,39.0,38.2,29.26,SSE,157,5.8,-999.0,97,-99.99,,,0.81,Acu-Link.com,2013-02-11 03:42:00,
2013-02-10 21:57:00,39.2,38.4,29.26,SSE,157,10.4,-999.0,97,-99.99,,,0.81,Acu-Link.com,2013-02-11 03:57:00,
2013-02-10 22:12:00,39.7,38.9,29.26,ESE,112,6.3,-999.0,97,-99.99,,,0.81,Acu-Link.com,2013-02-11 04:12:00,
2013-02-10 22:27:00,39.7,38.9,29.26,SSW,202,5.8,-999.0,97,-99.99,,,0.81,Acu-Link.com,2013-02-11 04:27:00,
2013-02-10 22:43:00,40.5,39.7,29.26,SSW,202,4.7,-999.0,97,-99.99,,,0.81,Acu-Link.com,2013-02-11 04:43:00,
2013-02-10 22:58:00,40.3,39.5,29.25,ESE,112,4.7,-999.0,97,-99.99,,,0.81,Acu-Link.com,2013-02-11 04:58:00,
2013-02-10 23:13:00,40.1,39.3,29.25,SSE,157,8.3,-999.0,97,-99.99,,,0.81,Acu-Link.com,2013-02-11 05:13:00,
2013-02-10 23:29:00,39.7,38.9,29.25,ESE,112,5.3,-999.0,97,-99.99,,,0.81,Acu-Link.com,2013-02-11 05:29:00,
2013-02-10 23:44:00,39.7,38.9,29.24,East,90,5.8,-999.0,97,-99.99,,,0.81,Acu-Link.com,2013-02-11 05:44:00,